Location: Curupao
(10.4996°N, 66.6442°W)
Time: 12:07:52
(UTC+00:00)

Cosmos 2219 - Pass Details

Date: 23 May 2024
Orbit: 834 x 858 km, 71.1° (Epoch: 18 June)

Event Time Altitude Azimuth Distance (km) Brightness Sun altitude
Exits shadow 08:51:44 - 190° (S) 2,606 5.4 -17.1°
Reaches altitude 10° 08:52:05 10° 189° (S) 2,476 5.3 -17.0°
Maximum altitude 08:57:45 74° 105° (ESE) 883 3.4 -15.7°
Drops below altitude 10° 09:03:23 10° 21° (NNE) 2,460 6.3 -14.5°
Sets 09:05:49 0° 19° (NNE) 3,391 7.0 -13.9°
